Regional Weather Roundup
Issued by NWS Raleigh/Durham, NC

Home | Current Version | Previous Version | Text Only | Print | Product List | Glossary On
Versions: 1 2 3 4 5 6 7 8 9 10 11 12 13 14 15 16 17 18 19 20 21 22 23 24 25 26 27 28 29 30 31 32 33 34 35 36 37 38 39 40 41 42 43 44 45 46 47 48 49 50
000
ASUS42 KRAH 270010
RWRRAH
NORTH CAROLINA WEATHER ROUNDUP
NATIONAL WEATHER SERVICE RALEIGH NC
800 PM EDT WED APR 26 2017

NOTE: "FAIR" INDICATES FEW OR NO CLOUDS BELOW 12,000 FEET WITH NO
SIGNIFICANT WEATHER AND/OR OBSTRUCTIONS TO VISIBILITY.

NCZ001-053-055-056-065-067-270100-
WESTERN NORTH CAROLINA

CITY           SKY/WX    TMP DP  RH WIND       PRES   REMARKS
ASHEVILLE      NOT AVBL
JEFFERSON      CLOUDY    65  56  74 SE5       29.86S
MORGANTON      CLEAR     73  60  64 CALM      29.84R
HICKORY        CLEAR     73  61  65 VRB3      29.79S
RUTHERFORDTON  CLEAR     74  59  58 S6        29.80S
MOUNT AIRY     NOT AVBL
BOONE          NOT AVBL
$$

NCZ021-022-025-041-071-084-088-270100-
CENTRAL NORTH CAROLINA

CITY           SKY/WX    TMP DP  RH WIND       PRES   REMARKS
CHARLOTTE      NOT AVBL
GREENSBORO     PTCLDY    74  62  66 S7        29.79S
WINSTON-SALEM  CLEAR     76  57  51 CALM      29.80R
RALEIGH-DURHAM PTCLDY    74  62  66 CALM      29.80S
FORT BRAGG     CLEAR     79  60  52 S5        29.79S
FAYETTEVILLE   CLEAR     78  62  57 S6        29.80R
BURLINGTON     CLEAR     75  63  66 S3        29.79R
LAURINBURG     CLEAR     74  64  71 S7        29.81R
$$

NCZ011-015-027-028-043-044-047-080-103-270100-
NORTHEASTERN NORTH CAROLINA

CITY           SKY/WX    TMP DP  RH WIND       PRES   REMARKS
ROCKY MT-WILSO CLEAR     69  66  90 CALM      29.80S
GREENVILLE     CLEAR     72  66  83 CALM      29.84S
WASHINGTON     PTCLDY    71  64  80 CALM      29.82S
ELIZABETH CITY CLEAR     69  63  81 S5        29.83R
MANTEO         CLEAR     67  64  89 S5        29.85R
CAPE HATTERAS  CLEAR     71  65  81 S5        29.85S HAZE
$$

NCZ078-087-090-091-093-098-101-270100-
SOUTHEASTERN NORTH CAROLINA

CITY           SKY/WX    TMP DP  RH WIND       PRES   REMARKS
LUMBERTON      CLEAR     76  64  66 S5        29.81R
GOLDSBORO      PTCLDY    76  67  72 S3        29.80R
KINSTON        MOCLDY    73  64  73 CALM      29.83R
KENANSVILLE    CLEAR     72  66  83 CALM      29.82R
NEW BERN       MOCLDY    73  64  73 S8        29.84R
CHERRY POINT   PTCLDY    71  62  73 S8        29.85R
BEAUFORT       CLEAR     70  66  87 SW10      29.85R
JACKSONVILLE   PTCLDY    71  67  87 S8        29.83R
WILMINGTON     CLEAR     74  63  68 SW10      29.84R
$$




USA.gov is the U.S. government's official web portal to all federal, state and local government web resources and services.